Location: Ottawa
(45.4170°N, 75.7000°W)
Time: 17:04:21
(UTC-04:00)

Amateur Radio Satellites - All Passes

Search period start: 04 September 2015 16:34
Search period end: 05 September 2015 16:34
Location: Ottawa, 45.4170°N, 75.7000°W

Satellite Date Start Highest point End Downlink Frequencies (MHz)
Time Altitude Azimuth
JAS-2 04 Sep 16:34:40 16:41:18 29° 271° (W) 16:47:46 435.910
HORYU 2 04 Sep 16:42:07 16:46:24 42° 262° (W) 16:50:41 437.375
SWISSCUBE 04 Sep 16:54:55 16:56:14 11° 303° (WNW) 16:57:19 437.505
AO-7 04 Sep 16:58:38 17:06:29 43° 262° (W) 17:14:16 29.400- 29.500
MOZHAYETS 4 04 Sep 17:11:52 17:16:17 46° 99° (E) 17:20:40
AIST 2 04 Sep 17:14:26 17:18:04 26° 318° (NW) 17:21:40 435.215
Cubesat XI-IV 04 Sep 17:22:00 17:26:17 26° 64° (ENE) 17:30:41 437.490
Cosmos 2499 04 Sep 17:32:24 17:38:18 20° 282° (WNW) 17:43:36 435.465 / 435.565
STARS 04 Sep 17:37:20 17:41:10 28° 293° (WNW) 17:44:56 437.465
O/OREOS (USA 219) 04 Sep 17:43:09 17:46:06 18° 101° (ESE) 17:49:13 437.305
Cosmos 2491 04 Sep 17:58:43 18:03:17 15° 51° (NE) 18:08:20 435.465 / 435.565
CUTE-I 04 Sep 18:04:34 18:09:45 57° 71° (ENE) 18:14:59 437.470
KKS-1 04 Sep 18:09:16 18:10:05 10° 302° (WNW) 18:10:38 437.445
RS-15 04 Sep 18:13:50 18:24:28 48° 324° (NW) 18:35:31 29.354- 29.394
AIST 1 04 Sep 18:30:01 18:33:59 34° 74° (ENE) 18:37:58
MOZHAYETS 4 04 Sep 18:49:46 18:53:13 21° 295° (WNW) 18:56:34
BRITE-PL 04 Sep 18:57:27 19:01:24 30° 66° (ENE) 19:05:42 437.365/2234.400
DOVE 4 04 Sep 18:59:23 19:01:43 14° 58° (ENE) 19:04:21 437.250
Cubesat XI-IV 04 Sep 19:01:01 19:06:10 48° 261° (W) 19:11:19 437.490
GOMX 1 04 Sep 19:05:03 19:08:42 23° 63° (ENE) 19:12:40 467.674
STRAND 1 04 Sep 19:12:08 19:15:52 21° 91° (E) 19:19:45 437.568
CUBESAT XI-V 04 Sep 19:17:13 19:21:54 83° 103° (ESE) 19:26:35 437.345
O/OREOS (USA 219) 04 Sep 19:20:41 19:25:09 53° 299° (WNW) 19:29:40 437.305
PRISM 04 Sep 19:29:44 19:32:30 18° 92° (E) 19:35:25 437.425
HO-68 04 Sep 19:30:49 19:37:07 36° 61° (ENE) 19:43:33 435.675
CUTE 1.7 + AOD 2 04 Sep 19:38:07 19:41:01 18° 65° (ENE) 19:44:01 437.475
CUTE-I 04 Sep 19:46:17 19:50:16 21° 270° (W) 19:54:07 437.470
CANX-2 04 Sep 19:52:00 19:55:36 27° 68° (ENE) 19:59:16 2200.000
Cosmos 2491 04 Sep 19:53:39 20:02:23 66° 77° (ENE) 20:11:07 435.465 / 435.565
YUBILEINY 04 Sep 20:03:13 20:10:27 31° 83° (E) 20:17:56 435.215
SEEDS 04 Sep 20:05:41 20:09:16 27° 68° (ENE) 20:12:52 437.485
AIST 1 04 Sep 20:08:00 20:11:29 23° 271° (W) 20:14:52
UWE-3 04 Sep 20:11:10 20:12:12 11° 58° (ENE) 20:13:28 435.000/436.395/437.385
CUBEBUG 2 04 Sep 20:11:51 20:14:15 14° 61° (ENE) 20:16:51 437.445
COMPASS 1 04 Sep 20:20:12 20:23:51 30° 69° (ENE) 20:27:33 437.405
AAUSAT CUBESAT 2 04 Sep 20:26:32 20:30:10 30° 69° (ENE) 20:33:50 437.432
RS-15 04 Sep 20:31:02 20:40:33 29° 357° (N) 20:50:26 29.354- 29.394
DOVE 4 04 Sep 20:33:58 20:38:43 88° 252° (WSW) 20:43:50 437.250
Oscar 11 04 Sep 20:35:38 20:38:39 19° 65° (ENE) 20:41:46 145.826/435.025
BRITE-PL 04 Sep 20:35:50 20:39:55 32° 267° (W) 20:44:15 437.365/2234.400
GOMX 1 04 Sep 20:42:01 20:46:31 47° 263° (W) 20:51:22 467.674
CINEMA 3 04 Sep 20:47:44 20:52:28 60° 73° (ENE) 20:57:24 145.822/145.860
STRAND 1 04 Sep 20:50:28 20:55:28 54° 289° (WNW) 21:00:25 437.568
BEESAT 3 04 Sep 20:53:22 20:54:16 11° 28° (NNE) 20:55:16 437.485
CUBESAT XI-V 04 Sep 20:56:29 20:58:45 13° 300° (WNW) 21:00:50 437.345
PRISM 04 Sep 21:04:16 21:08:10 42° 289° (WNW) 21:12:04 437.425
BEESAT 2 04 Sep 21:11:34 21:13:04 12° 29° (NNE) 21:14:38 435.950
CUTE 1.7 + AOD 2 04 Sep 21:12:28 21:16:37 48° 261° (W) 21:20:46 437.475
HO-68 04 Sep 21:17:41 21:24:39 52° 260° (W) 21:31:40 435.675
ZACube-1 04 Sep 21:26:53 21:31:10 41° 71° (ENE) 21:35:32 437.345
CANX-2 04 Sep 21:27:39 21:31:28 30° 265° (W) 21:35:15 2200.000
FUNcube-1 04 Sep 21:30:11 21:34:30 43° 71° (ENE) 21:38:52 145.935
HUMSAT D 04 Sep 21:36:35 21:39:50 22° 66° (ENE) 21:43:10 437.325/437.525
SEEDS 04 Sep 21:41:13 21:44:59 30° 265° (W) 21:48:42 437.485
UWE-3 04 Sep 21:43:19 21:47:58 78° 74° (ENE) 21:52:41 435.000/436.395/437.385
VELOX 1 04 Sep 21:44:08 21:45:04 11° 58° (ENE) 21:46:12 145.980
CUBEBUG 2 04 Sep 21:45:37 21:50:19 81° 258° (WSW) 21:55:07 437.445
Cosmos 2491 04 Sep 21:51:23 21:58:41 30° 277° (W) 22:05:46 435.465 / 435.565
DELFI C3 04 Sep 21:54:00 21:58:03 77° 76° (ENE) 22:02:06 145.870
COMPASS 1 04 Sep 21:55:56 21:59:31 26° 266° (W) 22:03:03 437.405
YUBILEINY 04 Sep 21:58:02 22:06:46 64° 284° (WNW) 22:15:33 435.215
AAUSAT CUBESAT 2 04 Sep 22:02:11 22:05:45 26° 266° (W) 22:09:17 437.432
50 SAT 04 Sep 22:02:57 22:05:25 16° 65° (ENE) 22:07:58 437.505
Oscar 11 04 Sep 22:10:19 22:14:31 47° 261° (W) 22:18:45 145.826/435.025
DX 1 04 Sep 22:10:20 22:14:00 28° 67° (ENE) 22:17:47 434.975-435.025
UKube-1 04 Sep 22:15:51 22:19:33 29° 67° (ENE) 22:23:19 .
DOVE 4 04 Sep 22:16:03 22:17:26 11° 278° (W) 22:18:32 437.250
AIST 2 04 Sep 22:17:48 22:19:31 12° 29° (NNE) 22:21:18 435.215
ANTELSAT 04 Sep 22:21:40 22:23:10 12° 86° (E) 22:24:55 437.575/2403.000
CINEMA 3 04 Sep 22:26:49 22:30:08 18° 272° (W) 22:33:22 145.822/145.860
BEESAT 3 04 Sep 22:29:14 22:33:11 49° 49° (NE) 22:37:04 437.485
CUBEBUG 1 04 Sep 22:37:35 22:40:52 22° 65° (ENE) 22:44:15 437.445
Cosmos 2504 04 Sep 22:42:36 22:50:13 44° 87° (E) 22:58:15 435.465 / 435.565
RS-15 04 Sep 22:46:18 22:57:04 41° 30° (NNE) 23:08:22 29.354- 29.394
BEESAT 2 04 Sep 22:47:58 22:52:00 57° 50° (NE) 22:55:58 435.950
AISAT 04 Sep 22:49:51 22:54:04 47° 71° (ENE) 22:58:22 437.250
ESTCUBE 1 04 Sep 22:53:16 22:57:23 38° 70° (ENE) 23:01:33 437.505/2401.250
M-CUBED/EXP-1 PRIME 04 Sep 22:55:26 22:55:34 10° 91° (E) 22:55:55 437.505
DANDE 04 Sep 23:00:40 23:01:20 10° 77° (ENE) 23:02:20 436.750
ZACube-1 04 Sep 23:04:01 23:07:42 23° 268° (W) 23:11:19 437.345
FUNcube-1 04 Sep 23:07:26 23:11:01 22° 269° (W) 23:14:32 145.935
UNISAT 6 04 Sep 23:10:31 23:14:44 37° 96° (E) 23:18:51 437.425
HUMSAT D 04 Sep 23:11:13 23:15:19 41° 263° (W) 23:19:26 437.325/437.525
VELOX 1 04 Sep 23:16:31 23:20:55 85° 77° (ENE) 23:25:24 145.980
UWE-3 04 Sep 23:23:01 23:25:09 13° 274° (W) 23:27:02 435.000/436.395/437.385
DUCHIFAT 1 04 Sep 23:25:20 23:28:17 18° 91° (E) 23:31:20 145.980
POLYITAN 1 04 Sep 23:28:02 23:31:16 21° 92° (E) 23:34:35 437.675
POPSAT HIP 1 04 Sep 23:28:48 23:32:02 21° 92° (E) 23:35:20 437.405
50 SAT 04 Sep 23:35:47 23:39:36 46° 261° (W) 23:43:26 437.505
TIGRISAT 04 Sep 23:37:01 23:41:34 67° 101° (E) 23:45:59 435.000
CUSAT 1 04 Sep 23:37:57 23:42:11 45° 91° (E) 23:47:49 437.405
NANOSAT C BR1 04 Sep 23:43:59 23:47:44 29° 95° (E) 23:51:29 145.865
DX 1 04 Sep 23:46:22 23:50:13 30° 264° (W) 23:54:03 434.975-435.025
QB50P2 04 Sep 23:46:31 23:50:24 32° 96° (E) 23:54:17 145.880/145.840
SPROUT 04 Sep 23:50:38 23:54:36 38° 70° (ENE) 23:58:39 437.525
UKube-1 04 Sep 23:51:51 23:55:38 29° 265° (W) 23:59:25 .
AIST 2 04 Sep 23:54:51 23:59:00 57° 51° (NE) 00:03:04 435.215
ANTELSAT 04 Sep 23:56:05 00:00:38 76° 285° (WNW) 00:05:03 437.575/2403.000
QB50P1 04 Sep 23:59:22 00:03:29 43° 98° (E) 00:07:35 145.935-145.965
YUBILEINY 05 Sep 00:01:00 00:05:55 15° 310° (NW) 00:10:21 435.215
BEESAT 3 05 Sep 00:07:57 00:10:46 18° 247° (WSW) 00:13:28 437.485
CUBEBUG 1 05 Sep 00:12:55 00:17:00 40° 262° (W) 00:21:07 437.445
AUBIESAT-1 05 Sep 00:17:15 00:21:07 81° 108° (ESE) 00:24:40 437.475
BEESAT 05 Sep 00:22:24 00:23:51 12° 58° (ENE) 00:25:32 436.000
BEESAT 2 05 Sep 00:27:06 00:29:38 16° 248° (WSW) 00:32:00 435.950
M-CUBED/EXP-1 PRIME 05 Sep 00:27:07 00:31:01 65° 292° (WNW) 00:34:35 437.505
AISAT 05 Sep 00:27:45 00:30:56 19° 269° (W) 00:34:00 437.250
ESTCUBE 1 05 Sep 00:30:44 00:34:23 23° 267° (W) 00:37:58 437.505/2401.250
Cosmos 2504 05 Sep 00:34:28 00:42:27 47° 289° (WNW) 00:50:40 435.465 / 435.565
TISAT 1 05 Sep 00:36:19 00:40:30 68° 74° (ENE) 00:44:44 437.305
DANDE 05 Sep 00:39:11 00:43:09 77° 283° (WNW) 00:48:38 436.750
SO-50 05 Sep 00:39:26 00:44:13 69° 122° (ESE) 00:49:09 436.795
SWISSCUBE 05 Sep 00:46:47 00:50:12 21° 63° (ENE) 00:53:46 437.505
BUGSAT 1 05 Sep 00:47:29 00:51:47 86° 102° (ESE) 00:56:03 437.445
UNISAT 6 05 Sep 00:47:36 00:51:21 25° 294° (WNW) 00:54:56 437.425
GONETS M04 05 Sep 00:55:35 00:59:16 14° 74° (ENE) 01:03:33
VELOX 1 05 Sep 00:57:39 00:58:12 10° 274° (W) 00:58:28 145.980
RS-15 05 Sep 00:59:09 01:11:01 85° 236° (WSW) 01:23:16 29.354- 29.394
DUCHIFAT 1 05 Sep 01:00:14 01:04:21 44° 289° (WNW) 01:08:24 145.980
POLYITAN 1 05 Sep 01:03:18 01:07:21 39° 290° (WNW) 01:11:20 437.675
POPSAT HIP 1 05 Sep 01:04:01 01:08:04 39° 290° (WNW) 01:12:04 437.405
TIGRISAT 05 Sep 01:15:06 01:17:48 15° 299° (WNW) 01:20:19 435.000
PCSat 05 Sep 01:18:10 01:23:26 57° 117° (ESE) 01:28:47 145.827
NANOSAT C BR1 05 Sep 01:19:48 01:23:30 28° 292° (WNW) 01:27:09 145.865
CUSAT 1 05 Sep 01:21:15 01:25:13 24° 300° (WNW) 01:30:01 437.405
QB50P2 05 Sep 01:22:35 01:26:11 26° 293° (WNW) 01:29:41 145.880/145.840
ITUPSAT 1 05 Sep 01:26:23 01:30:50 41° 69° (ENE) 01:35:20 437.325
SPROUT 05 Sep 01:27:27 01:30:50 22° 268° (W) 01:34:09 437.525
AIST 2 05 Sep 01:34:28 01:37:09 16° 248° (WSW) 01:39:42 435.215
QB50P1 05 Sep 01:35:52 01:39:04 20° 295° (WNW) 01:42:11 145.935-145.965
AUBIESAT-1 05 Sep 01:54:16 01:55:12 11° 307° (NW) 01:55:57 437.475
KKS-1 05 Sep 01:55:27 01:57:57 15° 61° (ENE) 02:00:37 437.445
BEESAT 05 Sep 01:56:13 02:00:59 81° 74° (ENE) 02:05:47 436.000
VERMONT LUNAR 05 Sep 02:01:22 02:02:58 14° 157° (SSE) 02:04:37 437.305
Oscar 19 05 Sep 02:11:55 02:16:55 45° 98° (E) 02:21:53 437.125/150
TISAT 1 05 Sep 02:15:02 02:16:49 12° 273° (W) 02:18:23 437.305
SO-50 05 Sep 02:21:14 02:25:15 24° 324° (NW) 02:29:15 436.795
SWISSCUBE 05 Sep 02:23:05 02:27:44 52° 260° (W) 02:32:24 437.505
BUGSAT 1 05 Sep 02:25:13 02:26:39 11° 300° (WNW) 02:27:52 437.445
DANDE 05 Sep 02:27:14 02:28:01 10° 312° (NW) 02:28:32 436.750
Cosmos 2499 05 Sep 02:27:28 02:31:39 15° 75° (ENE) 02:36:27 435.465 / 435.565
Cosmos 2504 05 Sep 02:35:51 02:37:33 10° 315° (NW) 02:38:39 435.465 / 435.565
GONETS M04 05 Sep 02:46:03 02:54:37 70° 94° (E) 03:03:19
STARS 05 Sep 02:59:36 03:03:40 37° 69° (ENE) 03:07:48 437.465
PCSat 05 Sep 03:02:33 03:07:14 28° 317° (NW) 03:11:52 145.827
ITUPSAT 1 05 Sep 03:05:01 03:08:54 24° 267° (W) 03:12:43 437.325
AO-7 05 Sep 03:08:42 03:10:08 11° 80° (E) 03:12:19 29.400- 29.500
RS-15 05 Sep 03:13:05 03:22:08 25° 257° (WSW) 03:30:46 29.354- 29.394
ITAMSAT 1 05 Sep 03:20:56 03:25:57 49° 99° (E) 03:31:00 435.822/435.867
KKS-1 05 Sep 03:29:40 03:34:06 67° 258° (WSW) 03:38:35 437.445
Gurwin Techsat 1B 05 Sep 03:29:57 03:35:17 74° 102° (ESE) 03:40:36 435.225
VERMONT LUNAR 05 Sep 03:36:12 03:38:52 29° 173° (S) 03:41:31 437.305
BEESAT 05 Sep 03:37:31 03:39:32 12° 274° (W) 03:41:18 436.000
JAS-2 05 Sep 03:41:36 03:48:15 49° 96° (E) 03:54:06 435.910
O/OREOS (USA 219) 05 Sep 03:49:14 03:53:43 49° 61° (ENE) 03:58:12 437.305
Oscar 19 05 Sep 03:51:44 03:56:04 27° 296° (WNW) 04:00:18 437.125/150
PHONESAT 2.4 05 Sep 04:12:47 04:14:51 15° 156° (SSE) 04:16:57 2401.200-2431.200
Cosmos 2499 05 Sep 04:14:49 04:23:20 71° 94° (E) 04:32:12 435.465 / 435.565
MOZHAYETS 4 05 Sep 04:15:40 04:20:10 56° 73° (ENE) 04:24:42
HORYU 2 05 Sep 04:31:08 04:35:03 30° 95° (E) 04:38:59 437.375
STARS 05 Sep 04:36:38 04:40:14 23° 267° (W) 04:43:47 437.465
GONETS M04 05 Sep 04:44:57 04:52:22 29° 297° (WNW) 04:59:38
CUBESAT XI-V 05 Sep 04:48:15 04:50:18 13° 60° (ENE) 04:52:34 437.345
AO-7 05 Sep 04:56:51 05:05:02 60° 103° (ESE) 05:13:12 29.400- 29.500
ITAMSAT 1 05 Sep 05:01:01 05:05:13 25° 297° (WNW) 05:09:18 435.822/435.867
Gurwin Techsat 1B 05 Sep 05:11:10 05:14:45 18° 300° (WNW) 05:18:09 435.225
VERMONT LUNAR 05 Sep 05:12:17 05:14:53 27° 189° (S) 05:17:27 437.305
JAS-2 05 Sep 05:26:59 05:33:05 33° 298° (WNW) 05:38:27 435.910
O/OREOS (USA 219) 05 Sep 05:29:30 05:32:49 19° 258° (WSW) 05:36:01 437.305
PHONESAT 2.4 05 Sep 05:49:05 05:52:12 32° 172° (S) 05:55:18 2401.200-2431.200
MOZHAYETS 4 05 Sep 05:54:47 05:57:49 17° 271° (W) 06:00:40
HORYU 2 05 Sep 06:07:45 06:11:39 29° 293° (WNW) 06:15:27 437.375
Cosmos 2499 05 Sep 06:09:51 06:17:23 30° 297° (WNW) 06:24:54 435.465 / 435.565
YUBILEINY 05 Sep 06:10:07 06:15:29 18° 54° (NE) 06:21:14 435.215
CUTE-I 05 Sep 06:20:17 06:23:56 19° 90° (E) 06:27:45 437.470
PRISM 05 Sep 06:22:03 06:24:51 19° 65° (ENE) 06:27:47 437.425
CUBESAT XI-V 05 Sep 06:22:34 06:27:10 81° 256° (WSW) 06:31:48 437.345
STRAND 1 05 Sep 06:29:53 06:34:31 37° 68° (ENE) 06:39:13 437.568
VERMONT LUNAR 05 Sep 06:49:43 06:50:43 11° 205° (SSW) 06:51:39 437.305
AO-7 05 Sep 06:50:08 06:57:32 37° 303° (WNW) 07:04:48 29.400- 29.500
BRITE-PL 05 Sep 07:01:55 07:02:55 11° 82° (E) 07:04:19 437.365/2234.400
AIST 1 05 Sep 07:02:52 07:05:40 18° 87° (E) 07:08:36
Cosmos 2491 05 Sep 07:06:35 07:10:19 14° 74° (ENE) 07:14:37 435.465 / 435.565
ISS 05 Sep 07:10:26 07:12:54 21° 137° (SE) 07:15:26 145.825
Cubesat XI-IV 05 Sep 07:15:44 07:21:00 58° 100° (E) 07:26:16 437.490
PHONESAT 2.4 05 Sep 07:26:36 07:29:41 32° 189° (S) 07:32:46 2401.200-2431.200
SO-50 05 Sep 07:29:05 07:32:58 23° 35° (NE) 07:36:52 436.795
PRISM 05 Sep 07:56:07 08:00:01 43° 261° (W) 08:03:56 437.425
CUTE-I 05 Sep 07:59:15 08:04:31 62° 289° (WNW) 08:09:47 437.470
YUBILEINY 05 Sep 08:05:24 08:14:17 74° 79° (ENE) 08:23:04 435.215
STRAND 1 05 Sep 08:09:21 08:13:49 30° 265° (W) 08:18:15 437.568
PCSat 05 Sep 08:21:20 08:24:50 17° 34° (NNE) 08:28:26 145.827
Cosmos 2504 05 Sep 08:27:32 08:32:28 17° 53° (NE) 08:37:39 435.465 / 435.565
CUSAT 1 05 Sep 08:29:46 08:33:18 14° 51° (NE) 08:37:24 437.405
DOVE 4 05 Sep 08:31:18 08:35:37 25° 91° (E) 08:39:59 437.250
BRITE-PL 05 Sep 08:36:50 08:42:26 72° 101° (E) 08:48:09 437.365/2234.400
AIST 1 05 Sep 08:38:58 08:43:01 42° 284° (WNW) 08:47:05
GOMX 1 05 Sep 08:41:01 08:46:21 49° 97° (E) 08:51:40 467.674
CINEMA 3 05 Sep 08:42:22 08:44:41 14° 85° (E) 08:47:13 145.822/145.860
HO-68 05 Sep 08:43:10 08:49:09 28° 92° (E) 08:55:16 435.675
ISS 05 Sep 08:45:49 08:49:03 65° 333° (NNW) 08:52:19 145.825
AO-7 05 Sep 08:47:09 08:48:02 10° 326° (NW) 08:48:32 29.400- 29.500
CUTE 1.7 + AOD 2 05 Sep 08:55:47 08:59:13 24° 93° (E) 09:02:40 437.475
Cubesat XI-IV 05 Sep 08:56:39 09:00:45 22° 298° (WNW) 09:04:44 437.490
Cosmos 2491 05 Sep 08:57:06 09:05:43 70° 94° (E) 09:14:23 435.465 / 435.565
TIGRISAT 05 Sep 09:04:59 09:05:57 11° 58° (ENE) 09:07:09 435.000
PHONESAT 2.4 05 Sep 09:05:01 09:07:00 15° 205° (SSW) 09:08:57 2401.200-2431.200
SO-50 05 Sep 09:09:07 09:14:06 76° 235° (SW) 09:18:55 436.795
CANX-2 05 Sep 09:10:14 09:14:11 38° 97° (E) 09:18:07 2200.000
ANTELSAT 05 Sep 09:22:08 09:24:57 16° 62° (ENE) 09:27:56 437.575/2403.000
SEEDS 05 Sep 09:22:47 09:26:41 37° 97° (E) 09:30:34 437.485
DANDE 05 Sep 09:32:05 09:38:11 25° 62° (ENE) 09:45:00 436.750
AUBIESAT-1 05 Sep 09:32:32 09:35:50 20° 59° (ENE) 09:39:10 437.475
UWE-3 05 Sep 09:32:54 09:35:09 14° 87° (E) 09:37:35 435.000/436.395/437.385
CUBEBUG 2 05 Sep 09:35:39 09:38:57 20° 89° (E) 09:42:18 437.445
COMPASS 1 05 Sep 09:36:20 09:40:15 40° 97° (E) 09:44:10 437.405
M-CUBED/EXP-1 PRIME 05 Sep 09:42:01 09:46:01 28° 62° (ENE) 09:49:56 437.505
AAUSAT CUBESAT 2 05 Sep 09:42:06 09:45:59 39° 97° (E) 09:49:53 437.432
CUTE-I 05 Sep 09:42:41 09:43:41 10° 306° (NW) 09:44:24 437.470
Oscar 11 05 Sep 09:55:42 09:59:17 26° 94° (E) 10:02:55 145.826/435.025
YUBILEINY 05 Sep 10:03:21 10:10:21 26° 279° (W) 10:17:01 435.215
PCSat 05 Sep 10:03:49 10:09:17 73° 55° (NE) 10:14:42 145.827
DOVE 4 05 Sep 10:08:29 10:13:36 47° 290° (WNW) 10:18:35 437.250
CUSAT 1 05 Sep 10:09:59 10:17:46 54° 73° (ENE) 10:25:47 437.405
UNISAT 6 05 Sep 10:11:04 10:15:31 44° 70° (ENE) 10:20:00 437.425
BRITE-PL 05 Sep 10:16:23 10:20:27 20° 298° (WNW) 10:24:25 437.365/2234.400
CINEMA 3 05 Sep 10:17:34 10:22:35 78° 285° (WNW) 10:27:24 145.822/145.860
Cosmos 2504 05 Sep 10:18:09 10:26:38 73° 78° (ENE) 10:34:33 435.465 / 435.565
GOMX 1 05 Sep 10:19:36 10:24:12 27° 295° (WNW) 10:28:43 467.674
DUCHIFAT 1 05 Sep 10:19:55 10:22:54 19° 64° (ENE) 10:25:59 145.980
ISS 05 Sep 10:23:01 10:25:52 27° 354° (N) 10:28:44 145.825
POLYITAN 1 05 Sep 10:23:11 10:26:27 22° 65° (ENE) 10:29:50 437.675
POPSAT HIP 1 05 Sep 10:23:46 10:27:00 22° 65° (ENE) 10:30:20 437.405
HO-68 05 Sep 10:30:18 10:37:24 62° 292° (WNW) 10:44:27 435.675
CUTE 1.7 + AOD 2 05 Sep 10:31:23 10:35:11 32° 291° (WNW) 10:38:55 437.475
TIGRISAT 05 Sep 10:37:15 10:41:57 76° 75° (ENE) 10:46:41 435.000
NANOSAT C BR1 05 Sep 10:38:31 10:42:10 29° 68° (ENE) 10:45:56 145.865
QB50P2 05 Sep 10:41:24 10:45:13 33° 69° (ENE) 10:49:06 145.880/145.840
CANX-2 05 Sep 10:46:38 10:49:55 22° 294° (WNW) 10:53:05 2200.000
ZACube-1 05 Sep 10:49:24 10:53:52 63° 100° (E) 10:58:10 437.345
FUNcube-1 05 Sep 10:52:26 10:56:53 66° 101° (E) 11:01:12 145.935
SO-50 05 Sep 10:52:52 10:53:51 10° 253° (WSW) 10:54:32 436.795
HUMSAT D 05 Sep 10:53:11 10:56:46 27° 94° (E) 11:00:20 437.325/437.525
QB50P1 05 Sep 10:53:57 10:57:58 43° 71° (ENE) 11:02:04 145.935-145.965
Cosmos 2491 05 Sep 10:56:05 11:03:28 29° 297° (WNW) 11:10:42 435.465 / 435.565
ANTELSAT 05 Sep 10:56:33 11:01:15 68° 259° (WSW) 11:05:58 437.575/2403.000
SEEDS 05 Sep 10:59:01 11:02:16 22° 294° (WNW) 11:05:26 437.485
AUBIESAT-1 05 Sep 11:05:33 11:10:12 57° 254° (WSW) 11:14:42 437.475
DELFI C3 05 Sep 11:05:36 11:09:36 84° 285° (WNW) 11:13:35 145.870
VELOX 1 05 Sep 11:06:15 11:08:30 14° 88° (E) 11:10:58 145.980
UWE-3 05 Sep 11:07:41 11:12:14 65° 287° (WNW) 11:16:37 435.000/436.395/437.385
50 SAT 05 Sep 11:09:31 11:11:51 16° 90° (E) 11:14:18 437.505
CUBEBUG 2 05 Sep 11:11:27 11:15:57 48° 289° (WNW) 11:20:17 437.445
COMPASS 1 05 Sep 11:12:36 11:15:40 20° 294° (WNW) 11:18:38 437.405
DANDE 05 Sep 11:14:17 11:22:13 87° 260° (W) 11:30:48 436.750
M-CUBED/EXP-1 PRIME 05 Sep 11:16:07 11:20:38 40° 257° (WSW) 11:24:59 437.505
AAUSAT CUBESAT 2 05 Sep 11:18:16 11:21:22 20° 294° (WNW) 11:24:20 437.432
Oscar 11 05 Sep 11:31:39 11:35:31 32° 291° (WNW) 11:39:19 145.826/435.025
DX 1 05 Sep 11:31:54 11:36:00 37° 97° (E) 11:40:06 434.975-435.025
UKube-1 05 Sep 11:36:27 11:40:31 37° 98° (E) 11:44:34 .
BUGSAT 1 05 Sep 11:39:18 11:43:23 79° 75° (ENE) 11:47:35 437.445
PCSat 05 Sep 11:48:29 11:52:10 18° 253° (WSW) 11:55:39 145.827
UNISAT 6 05 Sep 11:48:46 11:52:30 22° 268° (W) 11:56:08 437.425
CUSAT 1 05 Sep 11:52:50 12:00:11 40° 270° (W) 12:07:30 437.405
DUCHIFAT 1 05 Sep 11:54:19 11:58:23 45° 261° (W) 12:02:31 145.980
Oscar 19 05 Sep 11:55:12 11:57:21 13° 57° (ENE) 11:59:45 437.125/150
CINEMA 3 05 Sep 11:57:07 11:58:57 12° 302° (WNW) 12:00:32 145.822/145.860
POLYITAN 1 05 Sep 11:58:06 12:02:08 39° 262° (W) 12:06:12 437.675
POPSAT HIP 1 05 Sep 11:58:37 12:02:39 39° 263° (W) 12:06:42 437.405
CUBEBUG 1 05 Sep 11:59:22 12:03:18 31° 95° (E) 12:07:16 437.445
ISS 05 Sep 11:59:51 12:02:52 33° 14° (NNE) 12:05:52 145.825
Cosmos 2504 05 Sep 12:11:26 12:18:04 26° 279° (W) 12:24:10 435.465 / 435.565
NANOSAT C BR1 05 Sep 12:14:18 12:18:00 28° 266° (W) 12:21:40 145.865
AISAT 05 Sep 12:14:22 12:18:52 72° 102° (ESE) 12:23:20 437.250
TIGRISAT 05 Sep 12:17:02 12:19:18 13° 274° (W) 12:21:21 435.000
QB50P2 05 Sep 12:17:36 12:21:09 25° 266° (W) 12:24:41 145.880/145.840
ESTCUBE 1 05 Sep 12:19:57 12:24:26 61° 101° (E) 12:28:54 437.505/2401.250
HO-68 05 Sep 12:20:04 12:23:53 15° 312° (NW) 12:27:23 435.675
ZACube-1 05 Sep 12:27:01 12:29:43 16° 298° (WNW) 12:32:16 437.345
HUMSAT D 05 Sep 12:28:47 12:32:30 29° 291° (WNW) 12:36:05 437.325/437.525
FUNcube-1 05 Sep 12:30:06 12:32:42 15° 298° (WNW) 12:35:06 145.935
QB50P1 05 Sep 12:30:57 12:34:04 19° 269° (W) 12:37:06 145.935-145.965
VELOX 1 05 Sep 12:41:07 12:45:34 65° 287° (WNW) 12:49:59 145.980
50 SAT 05 Sep 12:42:58 12:46:38 41° 289° (WNW) 12:50:14 437.505
GONETS M04 05 Sep 12:53:38 13:01:43 39° 68° (ENE) 13:09:54
DANDE 05 Sep 12:58:52 13:04:40 21° 276° (W) 13:10:22 436.750
ITAMSAT 1 05 Sep 13:04:44 13:07:23 15° 58° (ENE) 13:10:15 435.822/435.867
DX 1 05 Sep 13:08:31 13:12:04 24° 295° (WNW) 13:15:31 434.975-435.025
SPROUT 05 Sep 13:10:35 13:14:52 56° 100° (E) 13:19:08 437.525
UKube-1 05 Sep 13:12:58 13:16:28 23° 295° (WNW) 13:19:51 .
Gurwin Techsat 1B 05 Sep 13:15:11 13:19:04 22° 62° (ENE) 13:23:06 435.225
Oscar 19 05 Sep 13:30:47 13:35:58 80° 73° (ENE) 13:41:12 437.125/150
CUBEBUG 1 05 Sep 13:35:45 13:39:36 29° 292° (WNW) 13:43:22 437.445
ISS 05 Sep 13:36:13 13:39:27 64° 212° (SSW) 13:42:40 145.825
AISAT 05 Sep 13:52:25 13:54:55 15° 299° (WNW) 13:57:16 437.250
TISAT 1 05 Sep 13:54:03 13:58:22 89° 285° (WNW) 14:02:38 437.305
JAS-2 05 Sep 13:54:23 14:01:10 34° 62° (ENE) 14:07:58 435.910
BEESAT 05 Sep 13:55:19 13:58:24 17° 90° (E) 14:01:39 436.000
ESTCUBE 1 05 Sep 13:57:59 14:00:52 17° 298° (WNW) 14:03:37 437.505/2401.250
BEESAT 3 05 Sep 14:00:52 14:04:43 44° 120° (ESE) 14:08:38 437.485
Cosmos 2499 05 Sep 14:04:27 14:11:44 30° 63° (ENE) 14:18:47 435.465 / 435.565
AO-7 05 Sep 14:08:04 14:14:21 25° 51° (NE) 14:20:49 29.400- 29.500
BEESAT 2 05 Sep 14:20:37 14:24:36 53° 121° (ESE) 14:28:38 435.950
SWISSCUBE 05 Sep 14:21:13 14:25:31 33° 96° (E) 14:29:50 437.505
ITAMSAT 1 05 Sep 14:41:04 14:46:15 89° 267° (W) 14:51:28 435.822/435.867
SPROUT 05 Sep 14:47:43 14:50:33 17° 297° (WNW) 14:53:14 437.525
GONETS M04 05 Sep 14:50:26 14:58:54 52° 270° (W) 15:07:18
Gurwin Techsat 1B 05 Sep 14:53:26 14:58:40 59° 259° (W) 15:03:56 435.225
ITUPSAT 1 05 Sep 15:02:05 15:06:52 74° 103° (ESE) 15:11:38 437.325
Oscar 19 05 Sep 15:13:16 15:16:03 14° 274° (W) 15:18:35 437.125/150
KKS-1 05 Sep 15:19:16 15:22:34 20° 92° (E) 15:25:58 437.445
RS-15 05 Sep 15:25:18 15:35:35 52° 113° (ESE) 15:46:23 29.354- 29.394
HORYU 2 05 Sep 15:31:13 15:35:21 37° 69° (ENE) 15:39:32 437.375
BEESAT 05 Sep 15:31:59 15:36:40 57° 288° (WNW) 15:41:19 436.000
TISAT 1 05 Sep 15:32:24 15:33:29 11° 301° (WNW) 15:34:21 437.305
AIST 2 05 Sep 15:32:31 15:36:42 60° 122° (ESE) 15:40:54 435.215
JAS-2 05 Sep 15:38:04 15:45:49 62° 260° (W) 15:53:32 435.910
BEESAT 3 05 Sep 15:39:25 15:42:49 24° 319° (NW) 15:46:12 437.485
Cosmos 2499 05 Sep 15:57:11 16:05:44 66° 266° (W) 16:13:34 435.465 / 435.565
AO-7 05 Sep 15:57:53 16:06:16 89° 251° (WSW) 16:14:40 29.400- 29.500
SWISSCUBE 05 Sep 15:59:09 16:03:19 30° 293° (WNW) 16:07:25 437.505
BEESAT 2 05 Sep 15:59:40 16:02:56 22° 320° (NW) 16:06:09 435.950
MOZHAYETS 4 05 Sep 16:10:57 16:12:11 11° 86° (E) 16:13:42
STARS 05 Sep 16:22:58 16:27:21 54° 100° (E) 16:31:42 437.465
ITAMSAT 1 05 Sep 16:24:38 16:26:37 12° 275° (W) 16:28:18 435.822/435.867
